Weather History for Thedford, NE

Change the Weather History Date:

Wednesday, July 16, 2014

  Actual Average (KLBF) Record (KLBF)
Temperature  
Mean Temperature 62 °F 75 °F  
Max Temperature 71 °F 89 °F 105 °F (1936)
Min Temperature 54 °F 61 °F 46 °F (1976)
Degree Days  
Heating Degree Days 2 0  
Month to date heating degree days 0  
Since 1 June heating degree days 51  
Since 1 July heating degree days 0  
Cooling Degree Days 0 10  
Month to date cooling degree days 146  
Year to date cooling degree days 312  
Since 1 June cooling degree days 284  
Growing Degree Days 12 (Base 50)    
Moisture  
Dew Point 53 °F    
Average Humidity 72    
Maximum Humidity 92    
Minimum Humidity 53    
Precipitation  
Precipitation 0.00 in 0.11 in 1.27 in (1937)
Month to date precipitation 1.52  
Year to date precipitation 12.38  
Snow  
Snow 0.00 in 0.00 in T in (2009)
Month to date snowfall 0.0  
Since 1 June snowfall 0.0  
Since 1 July snowfall 0.0  
Snow Depth -    
Sea Level Pressure  
Sea Level Pressure 30.10 in    
Wind  
Wind Speed 7 mph (SSE)    
Max Wind Speed 14 mph    
Max Gust Speed 17 mph    
Visibility 10 miles    
Events Thunderstorm    
T = Trace of Precipitation, MM = Missing Value Source: NWS Daily Summary

Daily Weather History Graph

Daily Weather History Graph

Search for Another Location

Airport:

Trip Planner

Search our weather history database for the weather conditions in past years. The results will help you decide how hot, cold, wet, or windy it might be!

Date:

Astronomy

Jul. 16, 2014 Rise Set
Actual Time 6:20 AM CDT 9:15 PM CDT
Civil Twilight 5:47 AM CDT 9:48 PM CDT
Nautical Twilight 5:05 AM CDT 10:30 PM CDT
Astronomical Twilight 4:16 AM CDT 11:18 PM CDT
Moon 11:54 PM CDT (7/16) 11:32 AM CDT (7/16)
Length of Visible Light 16h 00m
Length of Day
14h 54m
Waning Gibbous, 76% of the Moon is Illuminated
Jul 16
Waning Gibbous
Jul 18
Last Quarter
Jul 26
New
Aug 3
First Quarter
Aug 10
Full

Hourly Weather History & Observations

Time (CDT) Temp. Dew Point Humidity Pressure Visibility Wind Dir Wind Speed Gust Speed Precip Events Conditions
12:15 AM 62.2 °F 53.1 °F 72% 30.12 in 10.0 mi SSE 8.1 mph - N/A   Mostly Cloudy
12:35 AM 62.1 °F 53.2 °F 73% 30.12 in 10.0 mi SSE 6.9 mph - N/A   Overcast
12:55 AM 61.3 °F 53.2 °F 75% 30.11 in 10.0 mi SSE 6.9 mph - N/A   Scattered Clouds
1:15 AM 58.3 °F 52.7 °F 82% 30.11 in 10.0 mi East 4.6 mph - N/A   Clear
1:35 AM 56.8 °F 52.2 °F 84% 30.13 in 10.0 mi ENE 3.5 mph - N/A   Clear
1:55 AM 56.5 °F 52.2 °F 85% 30.13 in 10.0 mi Calm Calm - N/A   Clear
2:15 AM 55.8 °F 52.7 °F 89% 30.13 in 10.0 mi Calm Calm - N/A   Clear
2:35 AM 55.6 °F 52.7 °F 90% 30.13 in 10.0 mi Calm Calm - N/A   Scattered Clouds
2:55 AM 55.4 °F 52.5 °F 90% 30.12 in 10.0 mi ESE 5.8 mph - N/A   Scattered Clouds
3:15 AM 55.6 °F 52.9 °F 91% 30.12 in 10.0 mi SE 4.6 mph - N/A   Scattered Clouds
3:35 AM 55.9 °F 52.7 °F 89% 30.11 in 10.0 mi ESE 4.6 mph - N/A   Mostly Cloudy
3:55 AM 55.4 °F 52.3 °F 89% 30.11 in 10.0 mi ESE 5.8 mph - N/A   Scattered Clouds
4:15 AM 55.4 °F 52.2 °F 89% 30.10 in 10.0 mi ESE 6.9 mph - N/A   Clear
4:35 AM 55.0 °F 52.0 °F 89% 30.11 in 10.0 mi Calm Calm - N/A   Clear
4:55 AM 54.5 °F 51.8 °F 91% 30.11 in 10.0 mi SE 4.6 mph - N/A   Scattered Clouds
5:15 AM 54.1 °F 51.8 °F 92% 30.10 in 10.0 mi SE 5.8 mph - N/A   Mostly Cloudy
5:55 AM 55.8 °F 52.7 °F 89% 30.10 in 10.0 mi SE 4.6 mph - N/A   Overcast
6:15 AM 55.8 °F 52.7 °F 89% 30.09 in 10.0 mi ESE 6.9 mph - N/A   Overcast
6:35 AM 55.8 °F 52.7 °F 89% 30.10 in 10.0 mi ESE 4.6 mph - N/A   Overcast
6:55 AM 56.7 °F 53.1 °F 88% 30.10 in 10.0 mi ESE 5.8 mph - N/A   Overcast
7:15 AM 57.2 °F 53.1 °F 86% 30.10 in 10.0 mi ESE 5.8 mph - N/A   Overcast
7:35 AM 57.7 °F 53.2 °F 85% 30.10 in 10.0 mi ESE 5.8 mph - N/A   Overcast
7:55 AM 58.1 °F 53.2 °F 84% 30.10 in 10.0 mi ESE 5.8 mph - N/A   Scattered Clouds
8:15 AM 59.0 °F 53.2 °F 81% 30.10 in 10.0 mi ESE 5.8 mph - N/A   Mostly Cloudy
8:35 AM 59.9 °F 53.6 °F 80% 30.11 in 10.0 mi SE 6.9 mph - N/A   Mostly Cloudy
9:15 AM 61.2 °F 53.8 °F 77% 30.12 in 10.0 mi SE 8.1 mph - N/A   Overcast
9:35 AM 62.4 °F 53.6 °F 73% 30.12 in 10.0 mi SE 8.1 mph - N/A   Overcast
9:55 AM 63.3 °F 53.8 °F 71% 30.11 in 10.0 mi SE 10.4 mph - N/A   Overcast
10:15 AM 65.1 °F 53.8 °F 67% 30.11 in 10.0 mi SE 8.1 mph - N/A   Overcast
10:35 AM 64.8 °F 52.7 °F 65% 30.12 in 10.0 mi SSE 11.5 mph - N/A   Overcast
10:55 AM 65.3 °F 52.3 °F 63% 30.12 in 10.0 mi SSE 12.7 mph - N/A   Overcast
11:15 AM 64.6 °F 51.8 °F 63% 30.12 in 10.0 mi SSE 11.5 mph - N/A   Overcast
11:35 AM 65.3 °F 52.0 °F 62% 30.12 in 10.0 mi SSE 13.8 mph - N/A   Overcast
11:55 AM 65.5 °F 52.5 °F 63% 30.13 in 10.0 mi SSE 12.7 mph - N/A   Overcast
12:15 PM 65.7 °F 52.9 °F 63% 30.12 in 10.0 mi SSE 10.4 mph - N/A   Overcast
12:35 PM 66.9 °F 52.9 °F 61% 30.12 in 10.0 mi SSE 11.5 mph - N/A   Overcast
12:55 PM 67.3 °F 52.3 °F 59% 30.11 in 10.0 mi South 12.7 mph 17.3 mph N/A   Overcast
1:15 PM 67.1 °F 52.7 °F 60% 30.11 in 10.0 mi SE 12.7 mph - N/A   Overcast
1:35 PM 68.0 °F 53.1 °F 59% 30.11 in 10.0 mi SSE 10.4 mph - N/A Thunderstorm Overcast
1:55 PM 68.4 °F 52.9 °F 58% 30.10 in 10.0 mi SSE 9.2 mph - N/A   Overcast
2:15 PM 68.5 °F 52.5 °F 57% 30.10 in 10.0 mi SSE 6.9 mph - N/A   Overcast
2:35 PM 68.4 °F 52.2 °F 56% 30.10 in 10.0 mi South 11.5 mph - N/A   Overcast
2:55 PM 68.7 °F 52.3 °F 56% 30.10 in 10.0 mi SSE 11.5 mph 16.1 mph N/A   Mostly Cloudy
3:15 PM 71.1 °F 53.1 °F 53% 30.10 in 10.0 mi SSE 11.5 mph 16.1 mph N/A   Clear
3:35 PM 70.0 °F 52.3 °F 53% 30.09 in 10.0 mi South 11.5 mph - N/A   Clear
3:55 PM 68.7 °F 52.7 °F 57% 30.09 in 10.0 mi SSE 11.5 mph - N/A   Clear
4:15 PM 68.9 °F 52.9 °F 57% 30.09 in 10.0 mi SSE 10.4 mph - N/A   Clear
4:35 PM 68.4 °F 53.6 °F 59% 30.09 in 10.0 mi SE 10.4 mph - N/A   Clear
4:55 PM 68.5 °F 53.8 °F 59% 30.10 in 10.0 mi SSE 10.4 mph - N/A   Scattered Clouds
5:15 PM 68.7 °F 53.8 °F 59% 30.09 in 10.0 mi SSE 8.1 mph - N/A   Scattered Clouds
5:35 PM 69.1 °F 53.8 °F 58% 30.09 in 10.0 mi SE 9.2 mph - N/A   Clear
5:55 PM 70.3 °F 54.1 °F 56% 30.09 in 10.0 mi SSE 9.2 mph - N/A   Scattered Clouds
6:15 PM 71.1 °F 53.6 °F 54% 30.08 in 10.0 mi SE 10.4 mph - N/A   Scattered Clouds
6:35 PM 70.0 °F 53.6 °F 56% 30.08 in 10.0 mi South 8.1 mph - N/A   Scattered Clouds
6:55 PM 69.4 °F 53.4 °F 57% 30.07 in 10.0 mi SE 9.2 mph - N/A   Mostly Cloudy
7:15 PM 68.9 °F 53.4 °F 58% 30.07 in 10.0 mi South 9.2 mph - N/A   Mostly Cloudy
7:35 PM 69.6 °F 53.6 °F 57% 30.07 in 10.0 mi SSE 10.4 mph - N/A   Mostly Cloudy
7:55 PM 68.7 °F 53.8 °F 59% 30.07 in 10.0 mi SE 4.6 mph - N/A   Scattered Clouds
8:15 PM 68.0 °F 53.8 °F 60% 30.08 in 10.0 mi SSE 5.8 mph - N/A   Scattered Clouds
8:35 PM 67.6 °F 54.1 °F 62% 30.08 in 10.0 mi SSE 4.6 mph - N/A   Mostly Cloudy
8:55 PM 66.2 °F 54.5 °F 66% 30.09 in 10.0 mi SSE 4.6 mph - N/A   Scattered Clouds
9:15 PM 64.0 °F 54.5 °F 71% 30.10 in 10.0 mi SSE 5.8 mph - N/A   Scattered Clouds
9:35 PM 62.6 °F 54.5 °F 75% 30.09 in 10.0 mi South 6.9 mph - N/A   Scattered Clouds
9:55 PM 62.8 °F 54.3 °F 74% 30.09 in 10.0 mi South 6.9 mph - N/A   Mostly Cloudy
10:15 PM 61.0 °F 54.1 °F 78% 30.10 in 10.0 mi South 5.8 mph - N/A   Scattered Clouds
10:35 PM 60.8 °F 54.5 °F 80% 30.10 in 10.0 mi South 6.9 mph - N/A   Mostly Cloudy
10:55 PM 60.6 °F 54.5 °F 80% 30.10 in 10.0 mi SSW 5.8 mph - N/A   Mostly Cloudy
11:15 PM 59.0 °F 54.1 °F 84% 30.10 in 10.0 mi SSW 5.8 mph - N/A   Scattered Clouds
11:35 PM 58.5 °F 54.1 °F 86% 30.10 in 10.0 mi SSW 4.6 mph - N/A   Clear
11:55 PM 58.1 °F 54.5 °F 88% 30.10 in 10.0 mi SSW 5.8 mph - N/A   Clear